Location: Ferchesar
(52.6477°N, 12.4298°E)
Time: 13:18:13
(UTC+01:00)

Altair - Pass Details

Date: 11 December 2021
Orbit: 1501 x 1683 km, 47.2° (Epoch: 20 January)

Event Time Altitude Azimuth Distance (km) Brightness Sun altitude
Rises 21:41:31 0° 282° (WNW) 4,670 10.6 -49.9°
Reaches altitude 10° 21:47:51 10° 250° (WSW) 3,658 9.7 -50.7°
Enters shadow 21:49:34 11° 239° (WSW) 3,578 9.5 -51.0°
